This is the latest recevied weather packets stored in our database for station/object KC0AFB. If no packets are shown the sender has not sent any weather packets the latest 10 day(s).
| Time | Temp. | Humidity | Pressure | Rain* | Wind** | Luminosity | Snow |
|---|---|---|---|---|---|---|---|
| 1778237693 | 5.56° C | 53% | 1008 hPa | 0 mm | - | 0 W/m² | - |
| 1778237391 | 5.56° C | 51% | 1007.9 hPa | 0 mm | - | 0 W/m² | - |
| 1778237088 | 5.56° C | 50% | 1007.9 hPa | 0 mm | - | 0 W/m² | - |
| 1778236785 | 5.56° C | 50% | 1007.9 hPa | 0 mm | - | 0 W/m² | - |
| 1778236482 | 5° C | 54% | 1007.7 hPa | 0 mm | - | 0 W/m² | - |
| 1778236178 | 5° C | 55% | 1007.7 hPa | 0 mm | - | 0 W/m² | - |
| 1778235877 | 5° C | 54% | 1008.1 hPa | 0 mm | - | 0 W/m² | - |
| 1778235574 | 5.56° C | 53% | 1007.9 hPa | 0 mm | - | 0 W/m² | - |
| 1778235271 | 6.11° C | 52% | 1007.8 hPa | 0 mm | - | 0 W/m² | - |
| 1778234968 | 6.11° C | 50% | 1007.9 hPa | 0 mm | - | 0 W/m² | - |
| 1778234667 | 5.56° C | 49% | 1008.1 hPa | 0 mm | - | 0 W/m² | - |
| 1778234363 | 5° C | 51% | 1008.1 hPa | 0 mm | - | 0 W/m² | - |
| 1778234061 | 5.56° C | 51% | 1008.2 hPa | 0 mm | - | 0 W/m² | - |
| 1778233757 | 5.56° C | 50% | 1008.1 hPa | 0 mm | - | 0 W/m² | - |
| 1778233454 | 5.56° C | 54% | 1008.1 hPa | 0 mm | - | 0 W/m² | - |
| 1778233151 | 6.11° C | 50% | 1008 hPa | 0 mm | - | 0 W/m² | - |
| 1778232849 | 5.56° C | 47% | 1008.1 hPa | 0 mm | - | 0 W/m² | - |
| 1778232546 | 5.56° C | 49% | 1008.2 hPa | 0 mm | - | 0 W/m² | - |
| 1778232244 | 5.56° C | 49% | 1008 hPa | 0 mm | - | 0 W/m² | - |
| 1778231942 | 5° C | 50% | 1007.9 hPa | 0 mm | - | 0 W/m² | - |
| 1778231638 | 5° C | 50% | 1008.1 hPa | 0 mm | - | 0 W/m² | - |
| 1778231335 | 5.56° C | 50% | 1008.1 hPa | 0 mm | - | 0 W/m² | - |
| 1778231034 | 6.67° C | 46% | 1008.2 hPa | 0 mm | - | 0 W/m² | - |
| 1778230729 | 7.22° C | 44% | 1008 hPa | 0 mm | - | 0 W/m² | - |
| 1778230426 | 6.67° C | 44% | 1008.2 hPa | 0 mm | - | 0 W/m² | - |
* Rain latest hour (hover to see other rain measurements)
** Current wind speed in m/s (hover to see current wind gust speed)